Regional Weather Roundup
Issued by NWS Burlington, VT

Home | Current Version | Previous Version | Text Only | Print | Product List | Glossary On
Versions: 1 2 3 4 5 6 7 8 9 10 11 12 13 14 15 16 17 18 19 20 21 22 23 24 25 26 27 28 29 30 31 32 33 34 35 36 37 38 39 40 41 42 43 44 45 46 47 48 49 50
000
ASUS41 KBTV 210830
RWRBTV
VERMONT REGIONAL WEATHER ROUNDUP
NATIONAL WEATHER SERVICE BURLINGTON VT
400 AM EDT TUE OCT 21 2014

NOTE: "FAIR" INDICATES FEW OR NO CLOUDS BELOW 12,000 FEET WITH NO
SIGNIFICANT WEATHER AND/OR OBSTRUCTIONS TO VISIBILITY.

* THESE REPORTS ARE NOT UNDER NWS QUALITY CONTROL AND/OR DO NOT
  REPORT WEATHER SUCH AS PRECIPITATION AND FOG.

VTZ001>019-210900-
_____VERMONT_____


CITY           SKY/WX    TMP DP  RH WIND       PRES   REMARKS
BURLINGTON     LGT RAIN  47  39  74 CALM      29.93R
MONTPELIER     LGT RAIN  40  38  93 CALM      29.98R
MORRISVILLE    CLOUDY    39  36  89 CALM      29.96S
ST. JOHNSBURY*   N/A     39  36  89 MISG      29.96R
MIDDLEBURY*    LGT RAIN  48  46  92 CALM      29.92F
RUTLAND*       CLOUDY    46  37  71 SE8       29.93S
SPRINGFIELD    CLOUDY    43  42  97 CALM      29.97S
HIGHGATE*      CLOUDY    45  38  77 E5        29.92S
NEWPORT*       CLOUDY   N/A N/A N/A CALM      29.95S
BENNINGTON     CLOUDY    50  39  66 CALM      29.91F
SUTTON*          N/A     39 N/A N/A MISG        N/A
GALLUP MILLS*    N/A     37 N/A N/A MISG        N/A
UNION VILLAGE*   N/A     41 N/A N/A MISG        N/A
MT. MANSFIELD*   N/A     32 N/A N/A SW6         N/A

_____LAKE CHAMPLAIN_____


CITY           SKY/WX    TMP DP  RH WIND       PRES   REMARKS
BURTON ISLAND*   N/A     50  39  66 SE7         N/A
COLCHESTER RF*   N/A     50  41  71 SW13        N/A
DIAMOND ISL*     N/A     46  41  81 S9          N/A

$$

NYZ007-026>031-035-052-083-210900-
_____NORTHERN NEW YORK_____


CITY           SKY/WX    TMP DP  RH WIND       PRES   REMARKS
PLATTSBURGH    LGT RAIN  43  41  93 CALM      29.92S
SARANAC LAKE   LGT RAIN  40  38  93 CALM      29.87S
MASSENA        LGT RAIN  44  42  93 NE9       29.90S
OGDENSBURG*    DRIZZLE   45  45 100 E5        29.86S
POTSDAM*       CLOUDY    45  45 100 E5        29.88S
PARISHVILLE*     N/A     46 N/A N/A SE12        N/A
WATERTOWN      CLOUDY    50  44  80 SE5       29.83S
FT DRUM        DRIZZLE   46  45  95 SE8       29.83S
ALBANY         CLOUDY    48  43  82 CALM      29.91F
GLENS FALLS    LGT RAIN  45  41  86 CALM      29.91F

$$
NHZ002-005-011-210900-
_____NEW HAMPSHIRE_____


CITY           SKY/WX    TMP DP  RH WIND       PRES   REMARKS
LEBANON        CLOUDY    45  40  82 CALM      29.96R
KEENE          CLOUDY    45  36  70 CALM      29.96F
MT WASHINGTON  FOG       27  27 100 W24         N/A  VSB 1/16WCI  12
PLYMOUTH       CLOUDY    40  40 100 CALM      29.99S
WHITEFIELD     CLOUDY    39  35  86 CALM      29.96R

$$

_____REGIONAL QUEBEC LOCATIONS_____


CITY           SKY/WX    TMP DP  RH WIND       PRES   REMARKS
MONTREAL       LGT RAIN  43  39  87 NE12      29.94R
QUEBEC CITY    MOSUNNY   34  30  86 N5        30.00R
SHERBROOKE     CLOUDY    39  37  93 E6        29.95S

_____REGIONAL ONTARIO LOCATIONS_____


CITY           SKY/WX    TMP DP  RH WIND       PRES   REMARKS
OTTAWA         LGT RAIN  39  39 100 NE14      29.89S

______KEY______
VSB  - VISIBILITY IN MILES
WCI  - WIND CHILL INDEX
HX   - HEAT INDEX
$$
NNNN


USA.gov is the U.S. government's official web portal to all federal, state and local government web resources and services.